Zurück zum Katalog

STARLINK-4762

AktivKommunikationVLEO
NORAD 53866·PAYLOAD·🇺🇸 United States

Gestartet Sep 19, 2022 von Cape Canaveral Space Force Station

Loading…

Nächste Überflüge (nächste 24 Stunden)

TLE

AktuellSource: CelesTrak SupGP

Epoche: Sep 15, 2026, 02:35 UTC

1 53866C 22114BA  26258.10812500  .00015221  00000+0  44973-3 0  2586
2 53866  53.1562 118.8994 0001357  82.5729 194.5668 15.34381927    14

Verfolge STARLINK-4762 in Echtzeit mit AllMySat

Download on the App Store